[[{"header":{"parameterUnit":"m.s-1","parameterCategory":1,"la1":30.2991,"la2":30.254,"lo1":-89.0895,"lo2":-89.0444,"dy":0.0017,"dx":0.0017,"nx":28,"ny":28,"refTime":"2024-09-30T21:00:00:Z","depth":0,"parameterNumber":2,"parameterNumberName":"U-component_of_WINDS"},"data":[0,0,0,0,0,0,0,0,0,0,0,0,0,0,0,0,0,0,0,0,0,0,0,0,0,0,0,0,0,0,0,0,0,0,0,0,0,0,0,0,0,0,0,0,0,0,0,0,0,0,0,0,0,0,0,0,0,0,-0.4452,-0.4453,0,-0.4508,-0.4509,-0.451,-0.4491,-0.449,-0.4489,-0.4487,-0.4548,-0.455,-0.4553,0,0,0,0,0,0,0,0,0,0,0,0,0,-0.4332,-0.4334,-0.4452,-0.4453,-0.4454,-0.4508,-0.4509,-0.451,-0.4491,-0.449,-0.4488,-0.4487,-0.4547,-0.455,-0.4553,0,0,0,0,0,0,0,0,0,0,0,0,0,-0.4386,-0.4335,-0.4452,-0.4451,-0.4451,-0.4508,-0.4509,-0.451,-0.4491,-0.449,-0.4488,-0.4486,-0.4546,-0.455,-0.4554,-0.4616,0,0,-0.4566,-0.4568,0,0,0,0,0,0,0,0,-0.4383,-0.439,-0.445,-0.4451,-0.4452,-0.4491,-0.4488,-0.4546,-0.4492,-0.4476,-0.4487,-0.4485,-0.453,-0.4536,-0.455,-0.4619,-0.4621,-0.4567,-0.4569,-0.4571,-0.4572,0,0,0,0,0,0,0,-0.4379,-0.4388,-0.4475,-0.4451,-0.4452,-0.4448,-0.4454,-0.4499,-0.4513,-0.4478,-0.4476,-0.4483,-0.453,-0.4546,-0.4551,-0.4622,-0.4566,-0.457,-0.4573,-0.4574,-0.4744,-0.4746,0,0,0,0,0,0,-0.4374,-0.4385,-0.4473,-0.4476,-0.4412,-0.4452,-0.4458,-0.448,-0.4512,-0.4516,-0.4485,-0.4482,-0.454,-0.4547,-0.4554,-0.4629,-0.4571,-0.4575,-0.4577,-0.4742,-0.4745,-0.4747,0,0,0,0,0,0,-0.4372,-0.4382,-0.4471,-0.443,-0.4441,-0.4456,-0.4481,-0.4482,-0.4498,-0.4518,-0.452,-0.4498,-0.4539,-0.4548,-0.46,-0.4631,-0.4577,-0.458,-0.474,-0.4743,-0.4746,-0.478,0,0,0,0,0,0,-0.4368,-0.4382,-0.4405,-0.4431,-0.4443,-0.4516,-0.4483,-0.4485,-0.4505,-0.4502,-0.4531,-0.4534,-0.4538,-0.4594,-0.4604,-0.4636,-0.4583,-0.4737,-0.4741,-0.4745,-0.4776,-0.4784,-0.4791,0,0,0,0,0,-0.4364,-0.4413,-0.4406,-0.4417,-0.4473,-0.4518,-0.4525,-0.4528,-0.4507,-0.4532,-0.4544,-0.4533,-0.4625,-0.46,-0.4611,-0.4644,-0.4735,-0.474,-0.4745,-0.4773,-0.4783,-0.479,0,0,0,0,0,0,-0.4392,-0.4417,-0.4409,-0.4468,-0.4491,-0.4514,-0.4545,-0.4537,-0.4567,-0.4564,-0.4566,-0.4573,-0.4627,-0.464,-0.4611,-0.4706,-0.4677,-0.4685,-0.4695,-0.4704,-0.4711,-0.4708,-0.4587,0,0,0,0,0,-0.4405,-0.4438,-0.4458,-0.4508,-0.452,-0.453,-0.455,-0.455,-0.4574,-0.4584,-0.46,-0.4625,-0.4659,-0.4682,-0.4715,-0.4777,-0.4784,-0.4805,-0.4812,-0.4818,-0.4825,-0.486,-0.487,-0.4762,-0.4762,-0.4762,0,0,-0.4432,-0.4449,-0.4471,-0.4514,-0.4532,-0.4567,-0.4539,-0.4578,-0.4605,-0.459,-0.4641,-0.4654,-0.4681,-0.4739,-0.4765,-0.4752,-0.4856,-0.4824,-0.4828,-0.4832,-0.4865,-0.4876,-0.4885,-0.4765,-0.4765,-0.4764,0,0,-0.45,-0.4516,-0.4559,-0.4577,-0.4604,-0.461,-0.4621,-0.4645,-0.4653,-0.4703,-0.4693,-0.4725,-0.4785,-0.4805,-0.4823,-0.4897,-0.4889,-0.4907,-0.4945,-0.4979,-0.4987,-0.4995,-0.5023,-0.5032,-0.4913,-0.4914,-0.4914,0,-0.4531,-0.4584,-0.4583,-0.4623,-0.4642,-0.4629,-0.4674,-0.4691,-0.4728,-0.4742,-0.4726,-0.4799,-0.4817,-0.488,-0.4897,-0.4912,-0.4925,-0.4905,-0.4986,-0.4993,-0.5001,-0.5027,-0.5037,-0.4916,-0.4916,-0.4915,-0.4915,0,-0.4621,-0.4657,-0.4689,-0.4724,-0.4746,-0.4788,-0.4795,-0.4818,-0.4815,-0.4824,-0.4875,-0.4896,-0.4932,-0.4947,-0.4945,-0.5009,-0.5,-0.4985,-0.4957,-0.5013,-0.5038,-0.5048,-0.4919,-0.4918,-0.4918,-0.4917,0,0,-0.471,-0.4742,-0.4754,-0.477,-0.4797,-0.4826,-0.4867,-0.4902,-0.4923,-0.4947,-0.4983,-0.5032,-0.5018,-0.5039,-0.5039,-0.5068,-0.5126,-0.5049,-0.505,-0.5064,-0.52,-0.5213,-0.5224,-0.512,-0.5122,-0.5123,-0.5198,0,-0.4782,-0.4854,-0.4854,-0.492,-0.4955,-0.4942,-0.4978,-0.4999,-0.5007,-0.5038,-0.5047,-0.5083,-0.5061,-0.5073,-0.5101,-0.5113,-0.5154,-0.5108,-0.5155,-0.5156,-0.515,-0.5237,-0.5251,-0.532,-0.5208,-0.5209,-0.521,0,-0.4876,-0.4903,-0.4973,-0.4995,-0.5009,-0.5042,-0.5073,-0.5102,-0.5126,-0.513,-0.5152,-0.5147,-0.519,-0.5159,-0.5218,-0.5186,-0.5205,-0.5214,-0.5216,-0.5223,-0.5188,-0.5247,-0.5342,-0.5354,-0.5225,-0.5224,-0.5223,0,-0.4936,-0.499,-0.5038,-0.5052,-0.5079,-0.5102,-0.5114,-0.5136,-0.5157,-0.5184,-0.5198,-0.523,-0.5249,-0.5274,-0.5278,-0.5255,-0.5338,-0.5307,-0.5344,-0.5344,-0.5364,-0.5363,-0.5466,-0.5373,-0.5373,-0.5373,-0.5372,0,-0.5017,-0.5061,-0.5066,-0.5096,-0.5145,-0.5144,-0.5192,-0.5203,-0.5222,-0.5254,-0.5245,-0.5276,-0.5278,-0.531,-0.5314,-0.5363,-0.5371,-0.5376,-0.5377,-0.5378,-0.5378,-0.5392,-0.5388,-0.5375,-0.5375,-0.5374,-0.5374,0,-0.5094,-0.5099,-0.5151,-0.5172,-0.5178,-0.5213,-0.5231,-0.526,-0.5266,-0.5308,-0.5317,-0.5328,-0.5365,-0.5371,-0.5415,-0.5417,-0.5476,-0.5471,-0.5468,-0.5468,-0.5506,-0.5503,-0.5622,-0.5639,-0.5534,-0.5534,-0.5535,0,-0.5147,-0.518,-0.5203,-0.5224,-0.5237,-0.5271,-0.5291,-0.5291,-0.5313,-0.5342,-0.5368,-0.5404,-0.5433,-0.5492,-0.5505,-0.5538,-0.5535,-0.5574,-0.554,-0.554,-0.5537,-0.5536,-0.554,-0.5582,-0.5583,-0.5584,-0.5585,0,-0.524,-0.5241,-0.527,-0.5301,-0.5326,-0.535,-0.5373,-0.539,-0.5393,-0.5419,-0.5456,-0.5478,-0.5522,-0.5558,-0.5591,-0.5604,-0.5596,-0.5595,-0.5605,-0.5608,-0.5606,-0.5609,-0.5489,-0.5593,-0.5592,-0.5591,-0.5591,-0.5591,-0.5308,-0.5337,-0.5358,-0.5391,-0.5408,-0.5429,-0.5458,-0.5467,-0.5498,-0.5533,-0.5531,-0.5572,-0.5594,-0.5637,-0.5652,-0.5685,-0.5673,-0.5688,-0.5692,-0.5696,-0.57,-0.5599,-0.5691,-0.5691,-0.569,-0.569,-0.569,0,-0.5402,-0.5415,-0.5445,-0.5477,-0.5503,-0.549,-0.5515,-0.5538,-0.5574,-0.5595,-0.5623,-0.5666,-0.57,-0.5714,-0.5748,-0.5772,-0.5769,-0.5781,-0.578,-0.5784,-0.5709,-0.5697,-0.5783,-0.5783,-0.5783,-0.5783,-0.5783,-0.5783,-0.5455,-0.5503,-0.5506,-0.5563,-0.5574,-0.5614,-0.5629,-0.5649,-0.5666,-0.5714,-0.5742,-0.575,-0.5768,-0.5803,-0.5835,-0.5838,-0.5852,-0.5866,-0.5868,-0.5798,-0.5789,-0.578,-0.5769,-0.5868,-0.5869,-0.594,-0.5941,-0.5941]},{"header":{"parameterUnit":"m.s-1","parameterCategory":1,"la1":30.2991,"la2":30.254,"lo1":-89.0895,"lo2":-89.0444,"dy":0.0017,"dx":0.0017,"nx":28,"ny":28,"refTime":"2024-09-30T21:00:00:Z","depth":0,"parameterNumber":3,"parameterNumberName":"V-component_of_WINDS"},"data":[0,0,0,0,0,0,0,0,0,0,0,0,0,0,0,0,0,0,0,0,0,0,0,0,0,0,0,0,0,0,0,0,0,0,0,0,0,0,0,0,0,0,0,0,0,0,0,0,0,0,0,0,0,0,0,0,0,0,-4.408,-4.4081,0,-4.4168,-4.4169,-4.417,-4.4107,-4.4105,-4.4102,-4.4099,-4.4185,-4.419,-4.4194,0,0,0,0,0,0,0,0,0,0,0,0,0,-4.3855,-4.386,-4.408,-4.4081,-4.4083,-4.4168,-4.4169,-4.417,-4.4108,-4.4105,-4.4101,-4.4098,-4.4183,-4.4189,-4.4195,0,0,0,0,0,0,0,0,0,0,0,0,0,-4.3949,-4.3861,-4.408,-4.4062,-4.4061,-4.4168,-4.4169,-4.417,-4.4109,-4.4104,-4.41,-4.4096,-4.4181,-4.4188,-4.4196,-4.4324,0,0,-4.4218,-4.4221,0,0,0,0,0,0,0,0,-4.3944,-4.3957,-4.4063,-4.4063,-4.4063,-4.4123,-4.4121,-4.4222,-4.411,-4.409,-4.4099,-4.4094,-4.4167,-4.4175,-4.4201,-4.4328,-4.4331,-4.4219,-4.4223,-4.4226,-4.4228,0,0,0,0,0,0,0,-4.3937,-4.3953,-4.4115,-4.4065,-4.4065,-4.4048,-4.4057,-4.414,-4.4151,-4.4092,-4.4088,-4.4099,-4.4166,-4.4194,-4.4202,-4.4333,-4.4218,-4.4225,-4.4229,-4.4232,-4.4569,-4.4573,0,0,0,0,0,0,-4.3933,-4.3948,-4.4112,-4.4117,-4.3992,-4.4055,-4.4065,-4.4107,-4.415,-4.4152,-4.4102,-4.4096,-4.4184,-4.4194,-4.4205,-4.4358,-4.4226,-4.4233,-4.4237,-4.4564,-4.457,-4.4575,0,0,0,0,0,0,-4.3928,-4.3948,-4.4108,-4.4032,-4.4051,-4.4064,-4.4112,-4.4111,-4.4139,-4.4158,-4.4159,-4.4129,-4.4181,-4.4195,-4.4295,-4.436,-4.4236,-4.4243,-4.4559,-4.4566,-4.4572,-4.4665,0,0,0,0,0,0,-4.3922,-4.3947,-4.3997,-4.4033,-4.4055,-4.4199,-4.4116,-4.4116,-4.4152,-4.4144,-4.4183,-4.4186,-4.4179,-4.4284,-4.4302,-4.4368,-4.4248,-4.4553,-4.4562,-4.457,-4.4656,-4.4674,-4.469,0,0,0,0,0,-4.3914,-4.4018,-4.4,-4.402,-4.4118,-4.4202,-4.4215,-4.4206,-4.4158,-4.4207,-4.4219,-4.4184,-4.435,-4.4295,-4.4315,-4.4384,-4.4549,-4.4559,-4.4569,-4.4649,-4.4671,-4.4689,0,0,0,0,0,0,-4.3988,-4.4023,-4.4002,-4.4122,-4.416,-4.4192,-4.4254,-4.4229,-4.428,-4.4271,-4.4256,-4.4265,-4.437,-4.4386,-4.4325,-4.451,-4.4442,-4.4456,-4.4495,-4.4516,-4.4533,-4.4527,-4.4255,0,0,0,0,0,-4.4018,-4.4085,-4.4111,-4.4214,-4.4234,-4.4241,-4.4277,-4.4267,-4.4305,-4.4321,-4.434,-4.4377,-4.4438,-4.4478,-4.4534,-4.4658,-4.4665,-4.4715,-4.4732,-4.4745,-4.4758,-4.4825,-4.4847,-4.4608,-4.4608,-4.4608,0,0,-4.4081,-4.4108,-4.4151,-4.4229,-4.4258,-4.4326,-4.4255,-4.433,-4.4381,-4.4332,-4.4428,-4.4444,-4.4484,-4.4597,-4.4647,-4.4613,-4.4826,-4.4758,-4.4769,-4.4775,-4.4838,-4.486,-4.488,-4.4615,-4.4614,-4.4613,0,0,-4.423,-4.4258,-4.4347,-4.4377,-4.4421,-4.4425,-4.4446,-4.4483,-4.4492,-4.4588,-4.4553,-4.4612,-4.4716,-4.4747,-4.4776,-4.4937,-4.4907,-4.4956,-4.5043,-4.5108,-4.5127,-4.5144,-4.5202,-4.5223,-4.4968,-4.4969,-4.4969,0,-4.4302,-4.4406,-4.4395,-4.4474,-4.4509,-4.4469,-4.4559,-4.4588,-4.4648,-4.4672,-4.4634,-4.4765,-4.4789,-4.4908,-4.4948,-4.4973,-4.4996,-4.4952,-4.5126,-4.5142,-4.5157,-4.5212,-4.5234,-4.4974,-4.4974,-4.4973,-4.4973,0,-4.4492,-4.4565,-4.4631,-4.4692,-4.4734,-4.4818,-4.4818,-4.4863,-4.4849,-4.4856,-4.4955,-4.4983,-4.5044,-4.5072,-4.5058,-4.5189,-4.5167,-4.5128,-4.5059,-4.5186,-4.5238,-4.5259,-4.4983,-4.4981,-4.4979,-4.4977,0,0,-4.4691,-4.4745,-4.477,-4.4797,-4.4843,-4.4898,-4.4979,-4.5041,-4.5079,-4.5121,-4.5189,-4.5278,-4.5242,-4.5275,-4.5265,-4.5322,-4.5448,-4.5275,-4.5276,-4.5307,-4.5595,-4.5625,-4.5649,-4.5428,-4.5432,-4.5435,-4.5591,0,-4.4843,-4.4987,-4.498,-4.5114,-4.518,-4.5143,-4.5214,-4.5249,-4.5258,-4.5314,-4.5323,-4.5388,-4.5335,-4.5355,-4.541,-4.5421,-4.5506,-4.541,-4.549,-4.5493,-4.5482,-4.5676,-4.5708,-4.5854,-4.5611,-4.5615,-4.5617,0,-4.504,-4.5092,-4.5233,-4.5269,-4.5297,-4.5361,-4.5417,-4.5472,-4.551,-4.5513,-4.5551,-4.5531,-4.5611,-4.5541,-4.5652,-4.5587,-4.5619,-4.5629,-4.5635,-4.5642,-4.5563,-4.5689,-4.59,-4.5922,-4.5649,-4.5646,-4.5644,0,-4.5172,-4.5275,-4.5374,-4.5398,-4.5443,-4.5489,-4.5509,-4.5544,-4.5582,-4.563,-4.5654,-4.5711,-4.5742,-4.5786,-4.5781,-4.573,-4.5894,-4.5823,-4.5898,-4.5898,-4.5934,-4.5932,-4.6154,-4.5955,-4.5954,-4.5954,-4.5953,0,-4.5343,-4.5431,-4.5433,-4.5494,-4.5591,-4.5581,-4.5677,-4.5692,-4.5724,-4.5785,-4.5756,-4.5814,-4.5804,-4.5862,-4.5859,-4.5951,-4.5965,-4.5969,-4.5967,-4.5972,-4.5972,-4.5993,-4.5983,-4.596,-4.5958,-4.5957,-4.5956,0,-4.5506,-4.5511,-4.5616,-4.565,-4.5661,-4.5731,-4.576,-4.5816,-4.5823,-4.5902,-4.5919,-4.5929,-4.5996,-4.5996,-4.6071,-4.6069,-4.6183,-4.6169,-4.617,-4.6168,-4.6243,-4.6236,-4.6487,-4.6519,-4.6298,-4.63,-4.6302,0,-4.5616,-4.5683,-4.5725,-4.5765,-4.5789,-4.5854,-4.5892,-4.5885,-4.5926,-4.5976,-4.6026,-4.609,-4.6142,-4.625,-4.6263,-4.6321,-4.6308,-4.6392,-4.6316,-4.632,-4.631,-4.6306,-4.6313,-4.6407,-4.6409,-4.6411,-4.6413,0,-4.5809,-4.5809,-4.5867,-4.5926,-4.5974,-4.6019,-4.6061,-4.6095,-4.6092,-4.614,-4.6209,-4.6249,-4.6327,-4.6391,-4.6447,-4.6466,-4.6439,-4.6437,-4.6457,-4.6463,-4.6462,-4.6464,-4.6211,-4.6431,-4.6429,-4.6428,-4.6427,-4.6426,-4.5949,-4.6007,-4.6046,-4.6112,-4.6143,-4.6183,-4.6239,-4.6253,-4.6311,-4.6375,-4.6366,-4.6443,-4.6479,-4.6552,-4.6576,-4.6635,-4.6605,-4.6635,-4.6643,-4.665,-4.6659,-4.6452,-4.6645,-4.6644,-4.6644,-4.6643,-4.6643,0,-4.6142,-4.6165,-4.6226,-4.6287,-4.6338,-4.631,-4.6355,-4.6399,-4.6468,-4.6505,-4.6556,-4.6635,-4.6697,-4.6716,-4.6775,-4.6819,-4.6808,-4.6835,-4.6832,-4.6837,-4.6681,-4.6658,-4.6843,-4.6843,-4.6843,-4.6843,-4.6842,-4.6842,-4.6248,-4.6345,-4.6349,-4.6461,-4.6483,-4.656,-4.6588,-4.6625,-4.6654,-4.6745,-4.6797,-4.6809,-4.6838,-4.69,-4.6955,-4.6958,-4.6982,-4.7014,-4.7013,-4.6868,-4.6848,-4.6828,-4.6806,-4.7019,-4.7019,-4.7163,-4.7164,-4.7165]}]]